sat.trackr.live / text

‹ back to catalog

QIANFAN-238

NORAD 69867 · 2026-155V

PAYLOAD ACTIVE UNKNOWN

§ Identity

Operator
Country
PRC
Launch date
2026-07-05
Launch site
WSC
Launch vehicle
Mass (kg)
RCS (m²)

External: N2YO · Heavens-Above · Gunter

§ Orbital elements

Epoch: 2026-09-19T19:52:45.722208Z

Period
106.53 min
Inclination
89.0086°
Eccentricity
0.0027073
Mean motion
13.51721159 rev/d
Perigee alt
1,045.8 km
Apogee alt
1,086.1 km
Semi-major
7,444.1 km
B*
-2.9998e+0
RAAN
53.7592°
Arg perigee
13.6111°
Mean anomaly
346.5765°
Rev number
1,065

§ Raw data

QIANFAN-2381 69867U 26155V   26262.82830697 -.01832833  00000+0 -29998+1 0  99922 69867  89.0086  53.7592 0027073  13.6111 346.5765 13.51721159 10655

JSON: /api/v1/satellites/69867 · /tle

For live sub-satellite position, see the globe view (requires WebGL).

§ Visibility from observer

Set your observer location to see the next 7 days of passes ≥ 10°. The values pass through the URL so the page stays shareable.

No JS? Fill the form by hand. The geolocation button needs JavaScript.